Find Starlink 33596

NORAD ID: 62758 Int'l Des: 2025-015 Owner: SPXS Country: US Constellation: starlink operational
LEOCIRCULAR

現在のビュー

3D地球を読み込み中...

About Starlink 33596

Starlink 33596 (NORAD 62758) is a starlink constellation satellite (v2 mini) launched Jan 21, 2025 by SPXS of US. It operates in LEO, CIRCULAR orbit with a mass of 575.00 kg.

次回通過

Passes for default location (London). Set your location on the main map for personalized predictions.

高度履歴

Loading altitude history...

軌道要素

1 62758U 25015A 26264.98585322 .00015053 00000-0 49565-3 0 9999
2 62758 53.1584 129.3573 0001353 92.3780 267.7376 15.31713483 94486
Epoch: Sep 21, 2026 • Age: 29 hours

現在のステータス

高度 476.1 km
遠地点 / 近地点 N/A
速度 7.63 km/s
衛星直下点 52.51°N, 134.96°E
打ち上げ日 Jan 21, 2025
運用期間 1.6 years
タイプ internet

技術仕様

分類 Payload
質量 575.00 kg
乾燥質量 530.00 kg
長さ 0.30 m
スパン 29.00 m
形状 ? Box + pan
製造者 SPXS
バスタイプ Starlink V2MO
フェーズステータス In Orbit
所有者/国 SPXS/US

Most Searched